Satellite: ORSTED
Catalog number: 25635
Epoch time:      103106.93816990
Element set:     881 
Inclination:       96.4607 deg
RA of node:        79.4845 deg
Eccentricity:    0.0145202
Arg of perigee:   146.3694 deg
Mean anomaly:     214.6814 deg
Mean motion:   14.44926062 rev/day
Decay rate:    3.8600E-006 rev/day^2
Epoch rev:           21822
Checksum:              318

Satellite: SUNSAT
Catalog number: 25636
Epoch time:      103105.95485674
Element set:     715 
Inclination:       96.4622 deg
RA of node:        77.2762 deg
Eccentricity:    0.0149154
Arg of perigee:   156.5372 deg
Mean anomaly:     204.2721 deg
Mean motion:   14.42998629 rev/day
Decay rate:    2.0600E-006 rev/day^2
Epoch rev:           21794
Checksum:              321

Satellite: UOSAT 12
Catalog number: 25693
Epoch time:      103107.53120834
Element set:     883 
Inclination:       64.5614 deg
RA of node:       193.3676 deg
Eccentricity:    0.0025822
Arg of perigee:   313.0128 deg
Mean anomaly:      46.8811 deg
Mean motion:   14.76451860 rev/day
Decay rate:    1.3799E-006 rev/day^2
Epoch rev:           21481
Checksum:              409

Satellite: FENGYUN 1C
Catalog number: 25730
Epoch time:      103106.56525274
Element set:     813 
Inclination:       98.6284 deg
RA of node:       128.8175 deg
Eccentricity:    0.0014062
Arg of perigee:   196.7561 deg
Mean anomaly:     163.3148 deg
Mean motion:   14.11740578 rev/day
Decay rate:    1.8000E-007 rev/day^2
Epoch rev:           20267
Checksum:              298

Satellite: ASTRA 1H
Catalog number: 25785
Epoch time:      103099.00000000
Element set:     378 
Inclination:        0.0122 deg
RA of node:       319.8851 deg
Eccentricity:    0.0002995
Arg of perigee:    65.1991 deg
Mean anomaly:     190.9720 deg
Mean motion:    1.00273184 rev/day
Decay rate:    1.2299E-006 rev/day^2
Epoch rev:            1399
Checksum:              277

Satellite: TERRA
Catalog number: 25994
Epoch time:      103107.26950758
Element set:     886 
Inclination:       98.1903 deg
RA of node:       182.5654 deg
Eccentricity:    0.0000861
Arg of perigee:    90.7753 deg
Mean anomaly:     269.3543 deg
Mean motion:   14.57134835 rev/day
Decay rate:    2.8100E-006 rev/day^2
Epoch rev:           17707
Checksum:              334

Satellite: JAWSAT
Catalog number: 26061
Epoch time:      103107.54411154
Element set:     814 
Inclination:      100.1950 deg
RA of node:       175.3417 deg
Eccentricity:    0.0035895
Arg of perigee:   115.8038 deg
Mean anomaly:     244.6853 deg
Mean motion:   14.37898365 rev/day
Decay rate:    3.9199E-006 rev/day^2
Epoch rev:           16886
Checksum:              324

Satellite: OPAL
Catalog number: 26063
Epoch time:      103107.19759821
Element set:     764 
Inclination:      100.2019 deg
RA of node:       172.1985 deg
Eccentricity:    0.0037334
Arg of perigee:   124.0573 deg
Mean anomaly:     236.4152 deg
Mean motion:   14.35507139 rev/day
Decay rate:    8.4999E-007 rev/day^2
Epoch rev:           16865
Checksum:              316

Satellite: ASUSAT
Catalog number: 26065
Epoch time:      103107.50180482
Element set:     782 
Inclination:      100.1987 deg
RA of node:       172.7207 deg
Eccentricity:    0.0037940
Arg of perigee:   124.6385 deg
Mean anomaly:     235.8382 deg
Mean motion:   14.35537304 rev/day
Decay rate:    1.0200E-006 rev/day^2
Epoch rev:           16869
Checksum:              292

Satellite: GOES 11
Catalog number: 26352
Epoch time:      103107.14986080
Element set:     115 
Inclination:        0.2838 deg
RA of node:        99.0279 deg
Eccentricity:    0.0002448
Arg of perigee:   240.3240 deg
Mean anomaly:     165.4196 deg
Mean motion:    1.00272337 rev/day
Decay rate:   -3.6000E-007 rev/day^2
Epoch rev:            1081
Checksum:              257

Satellite: EUTELSAT W4
Catalog number: 26369
Epoch time:      103105.78126854
Element set:     375 
Inclination:        0.0567 deg
RA of node:        31.2297 deg
Eccentricity:    0.0002759
Arg of perigee:   330.6543 deg
Mean anomaly:     158.9819 deg
Mean motion:    1.00272063 rev/day
Decay rate:    1.5099E-006 rev/day^2
Epoch rev:            1061
Checksum:              400

Satellite: FENGYUN 2B
Catalog number: 26382
Epoch time:      103107.53746950
Element set:     831 
Inclination:        0.4284 deg
RA of node:       295.2923 deg
Eccentricity:    0.0001528
Arg of perigee:   261.2372 deg
Mean anomaly:     306.4660 deg
Mean motion:    1.00282906 rev/day
Decay rate:   -3.3599E-006 rev/day^2
Epoch rev:            1029
Checksum:              284

Satellite: EUTELSAT W1
Catalog number: 26487
Epoch time:      103105.90480097
Element set:     384 
Inclination:        0.0284 deg
RA of node:       147.6292 deg
Eccentricity:    0.0003964
Arg of perigee:   235.6978 deg
Mean anomaly:     156.0143 deg
Mean motion:    1.00274400 rev/day
Decay rate:    6.3999E-007 rev/day^2
Epoch rev:             958
Checksum:              308

Satellite: ASTRA 2B
Catalog number: 26494
Epoch time:      103099.00000000
Element set:     261 
Inclination:        0.0178 deg
RA of node:       354.5658 deg
Eccentricity:    0.0005000
Arg of perigee:   302.8402 deg
Mean anomaly:     287.5550 deg
Mean motion:    1.00276704 rev/day
Decay rate:    1.5199E-006 rev/day^2
Epoch rev:             941
Checksum:              246

Satellite: NOAA 16
Catalog number: 26536
Epoch time:      103107.26589219
Element set:     293 
Inclination:       98.9102 deg
RA of node:        55.1521 deg
Eccentricity:    0.0011148
Arg of perigee:   139.3330 deg
Mean anomaly:     220.8685 deg
Mean motion:   14.11939913 rev/day
Decay rate:    5.0600E-006 rev/day^2
Epoch rev:           13229
Checksum:              295

Satellite: SAUDISAT 1A
Catalog number: 26545
Epoch time:      103105.66568413
Element set:     439 
Inclination:       64.5584 deg
RA of node:       219.4885 deg
Eccentricity:    0.0047796
Arg of perigee:   229.8522 deg
Mean anomaly:     129.8381 deg
Mean motion:   14.79130649 rev/day
Decay rate:    7.4099E-006 rev/day^2
Epoch rev:           13752
Checksum:              356

Satellite: UNISAT
Catalog number: 26547
Epoch time:      103107.17544560
Element set:     459 
Inclination:       64.5576 deg
RA of node:       216.8439 deg
Eccentricity:    0.0054945
Arg of perigee:   230.9563 deg
Mean anomaly:     128.6660 deg
Mean motion:   14.79993418 rev/day
Decay rate:    1.3089E-005 rev/day^2
Epoch rev:           13771
Checksum:              343

Satellite: TIUNGSAT 1
Catalog number: 26548
Epoch time:      103107.28829745
Element set:     442 
Inclination:       64.5575 deg
RA of node:       206.7420 deg
Eccentricity:    0.0040890
Arg of perigee:   230.0407 deg
Mean anomaly:     129.7116 deg
Mean motion:   14.81467719 rev/day
Decay rate:    9.7100E-006 rev/day^2
Epoch rev:           13791
Checksum:              310

Satellite: SAUDISAT 1B
Catalog number: 26549
Epoch time:      103105.80986948
Element set:     730 
Inclination:       64.5525 deg
RA of node:       223.4497 deg
Eccentricity:    0.0052386
Arg of perigee:   229.3097 deg
Mean anomaly:     130.3446 deg
Mean motion:   14.78062576 rev/day
Decay rate:    8.4399E-006 rev/day^2
Epoch rev:           13745
Checksum:              346

Satellite: AMSAT OSCAR 40
Catalog number: 26609
Epoch time:      103101.06918723
Element set:     324 
Inclination:        8.4684 deg
RA of node:        54.7135 deg
Eccentricity:    0.7954739
Arg of perigee:   162.8251 deg
Mean anomaly:     262.9704 deg
Mean motion:    1.25597299 rev/day
Decay rate:   -3.3700E-006 rev/day^2
Epoch rev:            1123
Checksum:              311

Satellite: GOES 12
Catalog number: 26871
Epoch time:      103107.26988992
Element set:     922 
Inclination:        0.1848 deg
RA of node:       274.6528 deg
Eccentricity:    0.0000708
Arg of perigee:    89.3514 deg
Mean anomaly:     221.1378 deg
Mean motion:    1.00348360 rev/day
Decay rate:   -2.5399E-006 rev/day^2
Epoch rev:             641
Checksum:              310

Satellite: PCSAT
Catalog number: 26931
Epoch time:      103106.91157124
Element set:     451 
Inclination:       67.0469 deg
RA of node:       107.9873 deg
Eccentricity:    0.0005870
Arg of perigee:   273.7427 deg
Mean anomaly:      86.3003 deg
Mean motion:   14.29147791 rev/day
Decay rate:    1.1500E-006 rev/day^2
Epoch rev:            8054
Checksum:              294

Satellite: SAPPHIRE
Catalog number: 26932
Epoch time:      103106.53277848
Element set:     445 
Inclination:       67.0539 deg
RA of node:       108.6540 deg
Eccentricity:    0.0003983
Arg of perigee:   262.4092 deg
Mean anomaly:      97.6556 deg
Mean motion:   14.29317053 rev/day
Decay rate:    1.8999E-007 rev/day^2
Epoch rev:            8051
Checksum:              330

Satellite: ENVISAT
Catalog number: 27386
Epoch time:      103107.52916019
Element set:     3 
Inclination:       98.5453 deg
RA of node:       175.2569 deg
Eccentricity:    0.0000943
Arg of perigee:    88.8946 deg
Mean anomaly:     271.2346 deg
Mean motion:   14.32246235 rev/day
Decay rate:    1.2599E-006 rev/day^2
Epoch rev:            5904
Checksum:              434

Satellite: IDEFIX/ARIANE 
Catalog number: 27422
Epoch time:      103106.84835038
Element set:     281 
Inclination:       98.6869 deg
RA of node:       185.7591 deg
Eccentricity:    0.0012275
Arg of perigee:   347.3823 deg
Mean anomaly:      12.7048 deg
Mean motion:   14.28002230 rev/day
Decay rate:    1.4199E-006 rev/day^2
Epoch rev:            4963
Checksum:              316

